• In Switzerland
  • List of Countries
  • For 7 days
  • Water Temperature
  • Satellite Maps
  • Weather Map
  • Weather Widgets
  • user-avatar
    Login

    Hourly Weather Pretoriya

    Today, 19 August, Sunday

    Time Temperature Precipitation Wind Pressure Humidity
    00:00 +13°C° 0 mm 5 mps 747 mmHg 73%
    01:00 +12°C° 0 mm 5 mps 746 mmHg 74%
    02:00 +12°C° 0 mm 5 mps 747 mmHg 77%
    03:00 +10°C° 0 mm 5 mps 747 mmHg 80%
    04:00 +10°C° 0 mm 4 mps 747 mmHg 83%
    05:00 +11°C° 0 mm 4 mps 747 mmHg 81%
    06:00 +11°C° 0 mm 4 mps 747 mmHg 80%
    07:00 +12°C° 0 mm 5 mps 747 mmHg 78%
    08:00 +14°C° 0 mm 5 mps 747 mmHg 70%
    09:00 +15°C° 0 mm 5 mps 747 mmHg 63%
    10:00 +17°C° 0 mm 5 mps 747 mmHg 56%
    11:00 +19°C° 0 mm 5 mps 747 mmHg 52%
    12:00 +20°C° 0 mm 5 mps 747 mmHg 48%
    13:00 +21°C° 0 mm 5 mps 747 mmHg 44%
    14:00 +21°C° 0 mm 5 mps 747 mmHg 44%
    15:00 +21°C° 0 mm 4 mps 747 mmHg 45%
    16:00 +21°C° 0 mm 4 mps 747 mmHg 45%
    17:00 +20°C° 0 mm 4 mps 747 mmHg 50%
    18:00 +19°C° 0 mm 4 mps 747 mmHg 55%
    19:00 +18°C° 0 mm 3 mps 747 mmHg 60%
    20:00 +17°C° 0 mm 3 mps 747 mmHg 66%
    21:00 +16°C° 0 mm 3 mps 747 mmHg 71%
    22:00 +13°C° 0 mm 3 mps 747 mmHg 76%
    23:00 +13°C° 0 mm 3 mps 747 mmHg 78%

    Tomorrow, 20 August, Monday

    Time Temperature Precipitation Wind Pressure Humidity
    00:00 +12°C° 0 mm 3 mps 747 mmHg 81%
    01:00 +12°C° 0 mm 3 mps 747 mmHg 83%
    02:00 +11°C° 0 mm 3 mps 747 mmHg 84%
    03:00 +11°C° 0 mm 3 mps 747 mmHg 85%
    04:00 +10°C° 0 mm 3 mps 747 mmHg 86%
    05:00 +11°C° 0 mm 3 mps 748 mmHg 83%
    06:00 +11°C° 0 mm 3 mps 748 mmHg 80%
    07:00 +12°C° 0 mm 3 mps 748 mmHg 77%
    08:00 +14°C° 0 mm 3 mps 748 mmHg 70%
    09:00 +16°C° 0 mm 3 mps 748 mmHg 62%
    10:00 +18°C° 0 mm 3 mps 748 mmHg 55%
    11:00 +19°C° 0 mm 3 mps 748 mmHg 51%
    12:00 +20°C° 0 mm 3 mps 748 mmHg 47%
    13:00 +21°C° 0 mm 3 mps 747 mmHg 43%
    14:00 +21°C° 0 mm 3 mps 747 mmHg 42%
    15:00 +22°C° 0 mm 4 mps 747 mmHg 41%
    16:00 +22°C° 0 mm 4 mps 747 mmHg 40%
    17:00 +21°C° 0 mm 3 mps 747 mmHg 45%
    18:00 +20°C° 0 mm 3 mps 747 mmHg 50%
    19:00 +19°C° 0 mm 2 mps 747 mmHg 55%
    20:00 +18°C° 0 mm 2 mps 747 mmHg 58%
    21:00 +17°C° 0 mm 2 mps 747 mmHg 61%
    22:00 +16°C° 0 mm 1 mps 747 mmHg 64%
    23:00 +15°C° 0 mm 1 mps 747 mmHg 66%

    Day after tomorrow, 21 August, Tuesday

    Time Temperature Precipitation Wind Pressure Humidity
    00:00 +15°C° 0 mm 1 mps 747 mmHg 67%
    01:00 +15°C° 0 mm 1 mps 747 mmHg 69%
    02:00 +14°C° 0 mm 1 mps 747 mmHg 69%
    03:00 +14°C° 0 mm 2 mps 747 mmHg 70%
    04:00 +14°C° 0 mm 2 mps 747 mmHg 71%
    05:00 +15°C° 0 mm 2 mps 747 mmHg 68%
    06:00 +14°C° 0 mm 3 mps 747 mmHg 66%
    07:00 +16°C° 0 mm 3 mps 747 mmHg 63%
    08:00 +18°C° 0 mm 4 mps 746 mmHg 59%
    09:00 +21°C° 0 mm 5 mps 746 mmHg 55%
    10:00 +23°C° 0 mm 5 mps 746 mmHg 50%
    11:00 +24°C° 0 mm 6 mps 746 mmHg 49%
    12:00 +26°C° 0 mm 6 mps 746 mmHg 47%
    13:00 +27°C° 0 mm 6 mps 746 mmHg 45%
    14:00 +27°C° 0 mm 6 mps 745 mmHg 45%
    15:00 +28°C° 0 mm 6 mps 745 mmHg 44%
    16:00 +28°C° 0 mm 6 mps 745 mmHg 43%
    17:00 +27°C° 0 mm 5 mps 744 mmHg 47%
    18:00 +25°C° 0 mm 4 mps 744 mmHg 51%
    19:00 +24°C° 0 mm 3 mps 744 mmHg 55%
    20:00 +22°C° 0 mm 3 mps 744 mmHg 57%
    21:00 +21°C° 0 mm 3 mps 744 mmHg 58%
    22:00 +20°C° 0 mm 3 mps 744 mmHg 59%
    23:00 +19°C° 0 mm 3 mps 744 mmHg 59%

    22 August, Wednesday

    Time Temperature Precipitation Wind Pressure Humidity
    00:00 +19°C° 0 mm 3 mps 744 mmHg 59%
    01:00 +18°C° 0 mm 3 mps 743 mmHg 58%
    02:00 +18°C° 0 mm 3 mps 743 mmHg 58%
    03:00 +18°C° 0 mm 3 mps 743 mmHg 59%
    04:00 +17°C° 0 mm 3 mps 743 mmHg 59%
    05:00 +18°C° 0 mm 3 mps 743 mmHg 59%
    06:00 +18°C° 0 mm 3 mps 743 mmHg 58%
    07:00 +19°C° 0 mm 3 mps 743 mmHg 58%
    08:00 +21°C° 0 mm 4 mps 743 mmHg 50%
    09:00 +23°C° 0 mm 5 mps 743 mmHg 43%
    10:00 +27°C° 0 mm 6 mps 742 mmHg 35%
    11:00 +28°C° 0 mm 6 mps 742 mmHg 33%
    12:00 +28°C° 0 mm 7 mps 742 mmHg 30%
    13:00 +29°C° 0 mm 7 mps 741 mmHg 28%
    14:00 +29°C° 0 mm 7 mps 741 mmHg 28%
    15:00 +30°C° 0 mm 7 mps 741 mmHg 28%
    16:00 +30°C° 0 mm 7 mps 741 mmHg 27%
    17:00 +28°C° 0 mm 7 mps 741 mmHg 35%
    18:00 +26°C° 0 mm 6 mps 741 mmHg 42%
    19:00 +23°C° 0 mm 5 mps 741 mmHg 49%
    20:00 +22°C° 0.1 mm 5 mps 741 mmHg 58%
    21:00 +20°C° 0.1 mm 5 mps 741 mmHg 67%
    22:00 +19°C° 0.1 mm 4 mps 741 mmHg 76%
    23:00 +18°C° 0 mm 4 mps 741 mmHg 80%

    23 August, Thursday

    Time Temperature Precipitation Wind Pressure Humidity
    00:00 +17°C° 0 mm 3 mps 742 mmHg 85%
    01:00 +16°C° 0 mm 3 mps 742 mmHg 90%
    02:00 +16°C° 0 mm 3 mps 742 mmHg 91%
    03:00 +14°C° 0 mm 3 mps 742 mmHg 92%
    04:00 +13°C° 0 mm 3 mps 743 mmHg 94%
    05:00 +13°C° 0 mm 4 mps 743 mmHg 89%
    06:00 +13°C° 0 mm 4 mps 743 mmHg 85%
    07:00 +14°C° 0 mm 4 mps 744 mmHg 80%
    08:00 +15°C° 0 mm 5 mps 744 mmHg 74%
    09:00 +16°C° 0 mm 5 mps 745 mmHg 67%
    10:00 +19°C° 0 mm 5 mps 745 mmHg 61%
    11:00 +19°C° 0.1 mm 6 mps 745 mmHg 58%
    12:00 +20°C° 0.1 mm 6 mps 745 mmHg 54%
    13:00 +21°C° 0.1 mm 6 mps 745 mmHg 51%
    14:00 +21°C° 0 mm 6 mps 746 mmHg 49%
    15:00 +21°C° 0 mm 6 mps 746 mmHg 48%
    16:00 +21°C° 0 mm 6 mps 746 mmHg 46%
    17:00 +20°C° 0 mm 5 mps 746 mmHg 50%
    18:00 +19°C° 0 mm 5 mps 747 mmHg 54%
    19:00 +18°C° 0 mm 4 mps 747 mmHg 58%
    20:00 +15°C° 0 mm 4 mps 747 mmHg 62%
    21:00 +14°C° 0 mm 3 mps 748 mmHg 65%
    22:00 +13°C° 0 mm 3 mps 748 mmHg 69%
    23:00 +12°C° 0 mm 3 mps 748 mmHg 71%

    24 August, Friday

    Time Temperature Precipitation Wind Pressure Humidity
    00:00 +12°C° 0 mm 3 mps 749 mmHg 74%
    01:00 +12°C° 0 mm 2 mps 749 mmHg 76%
    02:00 +10°C° 0 mm 2 mps 749 mmHg 78%
    03:00 +10°C° 0 mm 2 mps 749 mmHg 79%
    04:00 +10°C° 0 mm 2 mps 749 mmHg 81%
    05:00 +10°C° 0 mm 2 mps 750 mmHg 78%
    06:00 +11°C° 0 mm 3 mps 750 mmHg 76%
    07:00 +11°C° 0 mm 3 mps 750 mmHg 73%
    08:00 +13°C° 0 mm 3 mps 750 mmHg 65%
    09:00 +15°C° 0 mm 4 mps 750 mmHg 57%
    10:00 +18°C° 0 mm 4 mps 749 mmHg 50%
    11:00 +19°C° 0 mm 5 mps 749 mmHg 47%
    12:00 +20°C° 0 mm 5 mps 749 mmHg 44%
    13:00 +21°C° 0 mm 6 mps 749 mmHg 42%
    14:00 +22°C° 0 mm 6 mps 748 mmHg 42%
    15:00 +22°C° 0 mm 6 mps 748 mmHg 42%
    16:00 +22°C° 0 mm 6 mps 748 mmHg 42%
    17:00 +21°C° 0 mm 6 mps 748 mmHg 47%
    18:00 +20°C° 0 mm 5 mps 748 mmHg 52%
    19:00 +19°C° 0 mm 4 mps 747 mmHg 56%
    20:00 +18°C° 0 mm 3 mps 747 mmHg 59%
    21:00 +18°C° 0 mm 3 mps 747 mmHg 62%
    22:00 +17°C° 0 mm 3 mps 747 mmHg 65%
    23:00 +16°C° 0 mm 3 mps 747 mmHg 69%
    Show more